Time,TemperatureF,DewpointF,PressureIn,WindDirection,WindDirectionDegrees,WindSpeedMPH,WindSpeedGustMPH,Humidity,HourlyPrecipIn,Conditions,Clouds,dailyrainin,SoftwareType,DateUTC
2013-08-18 00:01:00,52.9,46.9,30.31,North,2,0.0,0.0,80,0.00,,CLR,0.00,VWS V14.01,2013-08-18 04:01:00,
2013-08-18 00:06:00,52.9,46.9,30.31,North,2,0.0,0.0,80,0.00,,CLR,0.00,VWS V14.01,2013-08-18 04:06:00,
2013-08-18 00:11:00,52.9,46.9,30.31,North,2,0.0,0.0,80,0.00,,CLR,0.00,VWS V14.01,2013-08-18 04:11:00,
2013-08-18 00:16:00,52.9,46.9,30.31,North,2,0.0,0.0,80,0.00,,CLR,0.00,VWS V14.01,2013-08-18 04:16:00,
2013-08-18 00:21:00,52.9,46.9,30.31,North,2,0.0,0.0,80,0.00,,CLR,0.00,VWS V14.01,2013-08-18 04:21:00,
2013-08-18 00:26:00,52.9,46.9,30.31,North,2,0.0,0.0,80,0.00,,CLR,0.00,VWS V14.01,2013-08-18 04:26:00,
2013-08-18 00:31:00,52.9,46.9,30.31,North,2,0.0,0.0,80,0.00,,CLR,0.00,VWS V14.01,2013-08-18 04:31:00,
2013-08-18 00:36:00,52.9,46.9,30.31,North,2,0.0,0.0,80,0.00,,CLR,0.00,VWS V14.01,2013-08-18 04:36:00,
2013-08-18 00:41:00,52.9,46.9,30.31,North,2,0.0,0.0,80,0.00,,,0.00,VWS V14.01,2013-08-18 04:41:00,
2013-08-18 00:46:00,52.9,46.9,30.31,North,2,0.0,0.0,80,0.00,,,0.00,VWS V14.01,2013-08-18 04:46:00,
2013-08-18 00:51:00,52.9,46.9,30.31,North,2,0.0,0.0,80,0.00,,,0.00,VWS V14.01,2013-08-18 04:51:00,
2013-08-18 00:56:00,52.9,46.9,30.31,North,2,0.0,0.0,80,0.00,,,0.00,VWS V14.01,2013-08-18 04:56:00,
2013-08-18 01:01:00,52.9,46.9,30.31,North,2,0.0,0.0,80,0.00,,,0.00,VWS V14.01,2013-08-18 05:01:00,
2013-08-18 01:06:00,52.9,46.9,30.31,North,2,0.0,0.0,80,0.00,,,0.00,VWS V14.01,2013-08-18 05:06:00,
2013-08-18 01:11:00,52.9,46.9,30.31,North,2,0.0,0.0,80,0.00,,,0.00,VWS V14.01,2013-08-18 05:11:00,
2013-08-18 01:16:00,52.9,46.9,30.31,North,2,0.0,0.0,80,0.00,,,0.00,VWS V14.01,2013-08-18 05:16:00,
2013-08-18 01:21:00,52.9,46.9,30.31,North,2,0.0,0.0,80,0.00,,,0.00,VWS V14.01,2013-08-18 05:21:00,
2013-08-18 01:26:00,52.9,46.9,30.31,North,2,0.0,0.0,80,0.00,,,0.00,VWS V14.01,2013-08-18 05:26:00,
2013-08-18 01:32:00,52.9,46.9,30.31,North,2,0.0,0.0,80,0.00,,,0.00,VWS V14.01,2013-08-18 05:32:00,
2013-08-18 01:37:00,52.9,46.9,30.31,North,2,0.0,0.0,80,0.00,,,0.00,VWS V14.01,2013-08-18 05:37:00,
2013-08-18 01:42:00,52.9,46.9,30.31,North,2,0.0,0.0,80,0.00,,,0.00,VWS V14.01,2013-08-18 05:42:00,
2013-08-18 01:47:00,52.9,46.9,30.31,North,2,0.0,0.0,80,0.00,,,0.00,VWS V14.01,2013-08-18 05:47:00,
2013-08-18 01:52:00,52.9,46.9,30.31,North,2,0.0,0.0,80,0.00,,,0.00,VWS V14.01,2013-08-18 05:52:00,
2013-08-18 01:57:00,52.9,46.9,30.31,North,2,0.0,0.0,80,0.00,,,0.00,VWS V14.01,2013-08-18 05:57:00,
2013-08-18 02:02:00,52.9,46.9,30.31,North,2,0.0,0.0,80,0.00,,,0.00,VWS V14.01,2013-08-18 06:02:00,
2013-08-18 02:07:00,52.9,46.9,30.31,North,2,0.0,0.0,80,0.00,,,0.00,VWS V14.01,2013-08-18 06:07:00,
2013-08-18 02:12:00,52.9,46.9,30.31,North,2,0.0,0.0,80,0.00,,,0.00,VWS V14.01,2013-08-18 06:12:00,
2013-08-18 02:17:00,52.9,46.9,30.31,North,2,0.0,0.0,80,0.00,,,0.00,VWS V14.01,2013-08-18 06:17:00,
2013-08-18 02:22:00,52.9,46.9,30.31,North,2,0.0,0.0,80,0.00,,,0.00,VWS V14.01,2013-08-18 06:22:00,
2013-08-18 02:27:00,52.9,46.9,30.31,North,2,0.0,0.0,80,0.00,,,0.00,VWS V14.01,2013-08-18 06:27:00,
2013-08-18 02:32:00,52.9,46.9,30.31,North,2,0.0,0.0,80,0.00,,,0.00,VWS V14.01,2013-08-18 06:32:00,
2013-08-18 02:37:00,52.9,46.9,30.31,North,2,0.0,0.0,80,0.00,,,0.00,VWS V14.01,2013-08-18 06:37:00,
2013-08-18 02:42:00,50.0,46.0,30.31,North,2,0.0,0.0,86,0.00,,,0.00,VWS V14.01,2013-08-18 06:42:00,
2013-08-18 02:47:00,50.4,46.6,30.31,North,2,0.0,0.0,87,0.00,,,0.00,VWS V14.01,2013-08-18 06:47:00,
2013-08-18 02:52:00,50.4,46.6,30.31,North,2,0.0,0.0,87,0.00,,,0.00,VWS V14.01,2013-08-18 06:52:00,
2013-08-18 02:57:00,50.4,46.6,30.31,North,2,0.0,0.0,87,0.00,,,0.00,VWS V14.01,2013-08-18 06:57:00,
2013-08-18 03:02:00,50.4,46.6,30.34,North,2,0.0,0.0,87,0.00,,,0.00,VWS V14.01,2013-08-18 07:02:00,
2013-08-18 03:07:00,51.1,47.7,30.34,North,2,0.0,0.0,88,0.00,,,0.00,VWS V14.01,2013-08-18 07:07:00,
2013-08-18 03:12:00,51.1,47.7,30.34,North,2,0.0,0.0,88,0.00,,,0.00,VWS V14.01,2013-08-18 07:12:00,
2013-08-18 03:17:00,51.3,47.8,30.34,North,2,0.0,0.0,88,0.00,,,0.00,VWS V14.01,2013-08-18 07:17:00,
2013-08-18 03:22:00,51.3,47.8,30.34,North,2,0.0,0.0,88,0.00,,,0.00,VWS V14.01,2013-08-18 07:22:00,
2013-08-18 03:27:00,51.8,48.4,30.34,North,2,0.0,0.0,88,0.00,,,0.00,VWS V14.01,2013-08-18 07:27:00,
2013-08-18 03:32:00,51.8,48.4,30.34,North,2,0.0,0.0,88,0.00,,,0.00,VWS V14.01,2013-08-18 07:32:00,
2013-08-18 03:37:00,52.0,48.5,30.34,North,2,0.0,0.0,88,0.00,,,0.00,VWS V14.01,2013-08-18 07:37:00,
2013-08-18 03:42:00,52.0,48.5,30.34,North,2,0.0,0.0,88,0.00,,,0.00,VWS V14.01,2013-08-18 07:42:00,
2013-08-18 03:47:00,52.0,48.5,30.34,North,2,0.0,0.0,88,0.00,,,0.00,VWS V14.01,2013-08-18 07:47:00,
2013-08-18 03:52:00,52.0,48.5,30.34,North,2,0.0,0.0,88,0.00,,,0.00,VWS V14.01,2013-08-18 07:52:00,
2013-08-18 03:57:00,52.2,49.0,30.34,North,2,0.0,0.0,89,0.00,,,0.00,VWS V14.01,2013-08-18 07:57:00,
2013-08-18 04:02:00,52.2,49.0,30.34,North,2,0.0,0.0,89,0.00,,,0.00,VWS V14.01,2013-08-18 08:02:00,
2013-08-18 04:07:00,52.2,49.0,30.34,North,2,0.0,0.0,89,0.00,,,0.00,VWS V14.01,2013-08-18 08:07:00,
2013-08-18 04:12:00,52.2,49.0,30.34,North,2,0.0,0.0,89,0.00,,,0.00,VWS V14.01,2013-08-18 08:12:00,
2013-08-18 04:17:00,52.2,49.0,30.34,North,2,0.0,0.0,89,0.00,,,0.00,VWS V14.01,2013-08-18 08:17:00,
2013-08-18 04:23:00,52.0,48.8,30.34,North,2,0.0,0.0,89,0.00,,,0.00,VWS V14.01,2013-08-18 08:23:00,
2013-08-18 04:28:00,52.0,48.8,30.34,North,2,0.0,0.0,89,0.00,,,0.00,VWS V14.01,2013-08-18 08:28:00,
2013-08-18 04:33:00,51.8,48.7,30.34,North,2,0.0,0.0,89,0.00,,,0.00,VWS V14.01,2013-08-18 08:33:00,
2013-08-18 04:38:00,51.8,48.7,30.34,North,2,0.0,0.0,89,0.00,,,0.00,VWS V14.01,2013-08-18 08:38:00,
2013-08-18 04:43:00,51.6,48.8,30.34,North,2,0.0,0.0,90,0.00,,,0.00,VWS V14.01,2013-08-18 08:43:00,
2013-08-18 04:48:00,51.6,48.8,30.34,North,2,0.0,0.0,90,0.00,,,0.00,VWS V14.01,2013-08-18 08:48:00,
2013-08-18 04:53:00,51.6,48.8,30.34,North,2,0.0,0.0,90,0.00,,,0.00,VWS V14.01,2013-08-18 08:53:00,
2013-08-18 04:58:00,51.6,48.8,30.34,North,2,0.0,0.0,90,0.00,,,0.00,VWS V14.01,2013-08-18 08:58:00,
2013-08-18 05:03:00,51.6,48.8,30.34,North,2,0.0,0.0,90,0.00,,,0.00,VWS V14.01,2013-08-18 09:03:00,
2013-08-18 05:08:00,51.6,48.8,30.34,North,2,0.0,0.0,90,0.00,,,0.00,VWS V14.01,2013-08-18 09:08:00,
2013-08-18 05:13:00,51.6,48.8,30.34,North,2,0.0,0.0,90,0.00,,,0.00,VWS V14.01,2013-08-18 09:13:00,
2013-08-18 05:18:00,51.6,49.1,30.34,North,2,0.0,0.0,91,0.00,,,0.00,VWS V14.01,2013-08-18 09:18:00,
2013-08-18 05:23:00,51.4,48.9,30.34,North,2,0.0,0.0,91,0.00,,,0.00,VWS V14.01,2013-08-18 09:23:00,
2013-08-18 05:28:00,51.4,48.9,30.34,North,2,0.0,0.0,91,0.00,,,0.00,VWS V14.01,2013-08-18 09:28:00,
2013-08-18 05:33:00,51.4,48.9,30.34,North,2,0.0,0.0,91,0.00,,,0.00,VWS V14.01,2013-08-18 09:33:00,
2013-08-18 05:38:00,51.4,48.9,30.34,North,2,0.0,0.0,91,0.00,,,0.00,VWS V14.01,2013-08-18 09:38:00,
2013-08-18 05:43:00,51.6,49.1,30.34,North,2,0.0,0.0,91,0.00,,,0.00,VWS V14.01,2013-08-18 09:43:00,
2013-08-18 05:48:00,51.6,49.1,30.34,North,2,0.0,0.0,91,0.00,,,0.00,VWS V14.01,2013-08-18 09:48:00,
2013-08-18 05:53:00,51.8,49.3,30.34,North,2,0.0,0.0,91,0.00,,,0.00,VWS V14.01,2013-08-18 09:53:00,
2013-08-18 05:58:00,51.8,49.3,30.34,North,2,0.0,0.0,91,0.00,,,0.00,VWS V14.01,2013-08-18 09:58:00,
2013-08-18 06:03:00,51.8,49.3,30.34,North,2,0.0,0.0,91,0.00,,,0.00,VWS V14.01,2013-08-18 10:03:00,
2013-08-18 06:08:00,51.8,49.3,30.34,North,2,0.0,0.0,91,0.00,,,0.00,VWS V14.01,2013-08-18 10:08:00,
2013-08-18 06:13:00,51.8,49.3,30.34,North,2,0.0,0.0,91,0.00,,,0.00,VWS V14.01,2013-08-18 10:13:00,
2013-08-18 06:18:00,51.8,49.3,30.34,North,2,0.0,0.0,91,0.00,,,0.00,VWS V14.01,2013-08-18 10:18:00,
2013-08-18 06:23:00,51.8,49.3,30.34,North,2,0.0,0.0,91,0.00,,,0.00,VWS V14.01,2013-08-18 10:23:00,
2013-08-18 06:28:00,51.8,49.3,30.34,North,2,0.0,0.0,91,0.00,,,0.00,VWS V14.01,2013-08-18 10:28:00,
2013-08-18 06:33:00,51.8,49.3,30.34,North,2,0.0,0.0,91,0.00,,,0.00,VWS V14.01,2013-08-18 10:33:00,
2013-08-18 06:38:00,51.8,49.3,30.34,North,2,0.0,0.0,91,0.00,,,0.00,VWS V14.01,2013-08-18 10:38:00,
2013-08-18 06:43:00,51.8,49.3,30.34,North,2,0.0,0.0,91,0.00,,,0.00,VWS V14.01,2013-08-18 10:43:00,
2013-08-18 06:48:00,51.8,49.3,30.34,North,2,0.0,0.0,91,0.00,,,0.00,VWS V14.01,2013-08-18 10:48:00,
2013-08-18 06:53:00,51.8,49.3,30.34,North,2,0.0,0.0,91,0.00,,,0.00,VWS V14.01,2013-08-18 10:53:00,
2013-08-18 06:58:00,51.8,49.3,30.34,North,2,0.0,0.0,91,0.00,,,0.00,VWS V14.01,2013-08-18 10:58:00,
2013-08-18 07:03:00,51.8,49.3,30.34,North,2,0.0,0.0,91,0.00,,,0.00,VWS V14.01,2013-08-18 11:03:00,
2013-08-18 07:08:00,51.8,49.3,30.34,North,2,0.0,0.0,91,0.00,,,0.00,VWS V14.01,2013-08-18 11:08:00,
2013-08-18 07:13:00,51.8,49.3,30.34,North,2,0.0,0.0,91,0.00,,,0.00,VWS V14.01,2013-08-18 11:13:00,
2013-08-18 07:18:00,51.8,49.3,30.34,North,2,0.0,0.0,91,0.00,,,0.00,VWS V14.01,2013-08-18 11:18:00,
2013-08-18 07:23:00,51.8,49.3,30.34,North,2,0.0,0.0,91,0.00,,,0.00,VWS V14.01,2013-08-18 11:23:00,
2013-08-18 07:28:00,51.8,49.3,30.34,North,2,0.0,0.0,91,0.00,,,0.00,VWS V14.01,2013-08-18 11:28:00,
2013-08-18 07:33:00,51.8,49.3,30.34,North,2,0.0,0.0,91,0.00,,,0.00,VWS V14.01,2013-08-18 11:33:00,
2013-08-18 07:38:00,51.8,49.3,30.34,North,2,0.0,0.0,91,0.00,,,0.00,VWS V14.01,2013-08-18 11:38:00,
2013-08-18 07:44:00,53.8,51.5,30.34,North,2,0.0,0.0,92,0.00,,,0.00,VWS V14.01,2013-08-18 11:44:00,
2013-08-18 07:49:00,54.0,51.7,30.34,North,2,0.0,0.0,92,0.00,,,0.00,VWS V14.01,2013-08-18 11:49:00,
2013-08-18 07:54:00,54.0,51.7,30.34,North,2,0.0,0.0,92,0.00,,,0.00,VWS V14.01,2013-08-18 11:54:00,
2013-08-18 07:59:00,54.3,52.0,30.34,North,2,0.0,0.0,92,0.00,,,0.00,VWS V14.01,2013-08-18 11:59:00,
2013-08-18 08:04:00,54.3,52.0,30.34,North,2,0.0,0.0,92,0.00,,,0.00,VWS V14.01,2013-08-18 12:04:00,
2013-08-18 08:09:00,54.9,52.9,30.34,North,2,0.0,0.0,93,0.00,,,0.00,VWS V14.01,2013-08-18 12:09:00,
2013-08-18 08:14:00,54.9,52.9,30.34,North,2,0.0,0.0,93,0.00,,,0.00,VWS V14.01,2013-08-18 12:14:00,
2013-08-18 08:19:00,55.4,53.1,30.34,North,2,0.0,0.0,92,0.00,,,0.00,VWS V14.01,2013-08-18 12:19:00,
2013-08-18 08:24:00,55.4,53.1,30.34,North,2,0.0,0.0,92,0.00,,,0.00,VWS V14.01,2013-08-18 12:24:00,
2013-08-18 08:29:00,55.4,53.1,30.34,North,2,0.0,0.0,92,0.00,,,0.00,VWS V14.01,2013-08-18 12:29:00,
2013-08-18 08:34:00,55.6,53.3,30.34,North,2,0.0,0.0,92,0.00,,,0.00,VWS V14.01,2013-08-18 12:34:00,
2013-08-18 08:39:00,55.6,53.3,30.34,North,2,0.0,0.0,92,0.00,,,0.00,VWS V14.01,2013-08-18 12:39:00,
2013-08-18 08:44:00,55.9,53.7,30.34,North,2,0.0,0.0,92,0.00,,,0.00,VWS V14.01,2013-08-18 12:44:00,
2013-08-18 08:49:00,55.9,53.7,30.34,North,2,0.0,0.0,92,0.00,,,0.00,VWS V14.01,2013-08-18 12:49:00,
2013-08-18 08:54:00,55.9,53.7,30.34,North,2,0.0,0.0,92,0.00,,,0.00,VWS V14.01,2013-08-18 12:54:00,
2013-08-18 08:59:00,55.9,53.7,30.34,North,2,0.0,0.0,92,0.00,,,0.00,VWS V14.01,2013-08-18 12:59:00,
2013-08-18 09:04:00,56.3,54.3,30.34,North,2,0.0,0.0,93,0.00,,,0.00,VWS V14.01,2013-08-18 13:04:00,
2013-08-18 09:09:00,56.5,54.5,30.34,North,2,0.0,0.0,93,0.00,,,0.00,VWS V14.01,2013-08-18 13:09:00,
2013-08-18 09:14:00,56.5,54.5,30.34,North,2,0.0,0.0,93,0.00,,SCT001,0.00,VWS V14.01,2013-08-18 13:14:00,
2013-08-18 09:19:00,56.5,54.5,30.34,North,2,0.0,0.0,93,0.00,,SCT001,0.00,VWS V14.01,2013-08-18 13:19:00,
2013-08-18 09:24:00,57.7,55.7,30.34,North,2,0.0,0.0,93,0.00,,SCT001,0.00,VWS V14.01,2013-08-18 13:24:00,
2013-08-18 09:29:00,57.9,55.9,30.34,North,2,0.0,0.0,93,0.00,,SCT001,0.00,VWS V14.01,2013-08-18 13:29:00,
2013-08-18 09:34:00,57.9,55.9,30.34,North,2,0.0,0.0,93,0.00,,SCT001,0.00,VWS V14.01,2013-08-18 13:34:00,
2013-08-18 09:39:00,58.1,56.1,30.34,North,2,0.0,0.0,93,0.00,,SCT001,0.00,VWS V14.01,2013-08-18 13:39:00,
2013-08-18 09:44:00,58.5,56.5,30.34,North,2,0.0,0.0,93,0.00,,CLR,0.00,VWS V14.01,2013-08-18 13:44:00,
2013-08-18 09:49:00,58.8,56.8,30.34,North,2,0.0,0.0,93,0.00,,CLR,0.00,VWS V14.01,2013-08-18 13:49:00,
2013-08-18 09:54:00,59.4,57.3,30.34,North,2,0.0,0.0,93,0.00,,CLR,0.00,VWS V14.01,2013-08-18 13:54:00,
2013-08-18 09:59:00,60.6,58.6,30.34,North,2,0.0,0.0,93,0.00,,CLR,0.00,VWS V14.01,2013-08-18 13:59:00,
2013-08-18 10:04:00,60.6,58.6,30.34,North,2,0.0,0.0,93,0.00,,CLR,0.00,VWS V14.01,2013-08-18 14:04:00,
2013-08-18 10:09:00,62.1,60.0,30.34,North,2,0.0,0.0,93,0.00,,CLR,0.00,VWS V14.01,2013-08-18 14:09:00,
2013-08-18 10:15:00,62.8,60.4,30.34,North,2,0.0,0.0,92,0.00,,CLR,0.00,VWS V14.01,2013-08-18 14:15:00,
2013-08-18 10:20:00,63.0,60.6,30.34,North,2,0.0,0.0,92,0.00,,CLR,0.00,VWS V14.01,2013-08-18 14:20:00,
2013-08-18 10:25:00,63.9,61.5,30.34,North,2,0.0,0.0,92,0.00,,CLR,0.00,VWS V14.01,2013-08-18 14:25:00,
2013-08-18 10:30:00,63.9,61.5,30.34,North,2,0.0,0.0,92,0.00,,CLR,0.00,VWS V14.01,2013-08-18 14:30:00,
2013-08-18 10:35:00,63.9,61.5,30.34,North,2,0.0,0.0,92,0.00,,CLR,0.00,VWS V14.01,2013-08-18 14:35:00,
2013-08-18 10:40:00,65.7,62.7,30.34,North,2,0.0,0.0,90,0.00,,CLR,0.00,VWS V14.01,2013-08-18 14:40:00,
2013-08-18 10:45:00,66.7,63.4,30.34,SSE,159,0.0,0.0,89,0.00,,CLR,0.00,VWS V14.01,2013-08-18 14:45:00,
2013-08-18 10:50:00,66.7,63.4,30.34,SSE,161,0.0,0.0,89,0.00,,CLR,0.00,VWS V14.01,2013-08-18 14:50:00,
2013-08-18 10:55:00,67.8,64.1,30.34,SSE,160,0.0,0.0,88,0.00,,CLR,0.00,VWS V14.01,2013-08-18 14:55:00,
2013-08-18 11:00:00,68.4,63.7,30.34,North,6,0.0,0.0,85,0.00,,CLR,0.00,VWS V14.01,2013-08-18 15:00:00,
2013-08-18 11:05:00,68.7,63.7,30.34,SSE,162,0.0,0.0,84,0.00,,CLR,0.00,VWS V14.01,2013-08-18 15:05:00,
2013-08-18 11:10:00,69.8,64.1,30.34,SSE,162,0.0,0.0,82,0.00,,CLR,0.00,VWS V14.01,2013-08-18 15:10:00,
2013-08-18 11:15:00,69.8,64.1,30.34,South,170,0.0,0.0,82,0.00,,CLR,0.00,VWS V14.01,2013-08-18 15:15:00,
2013-08-18 11:20:00,69.8,64.1,30.34,SSE,160,3.6,3.6,82,0.00,,CLR,0.00,VWS V14.01,2013-08-18 15:20:00,
2013-08-18 11:25:00,71.2,62.9,30.34,SSE,160,3.1,3.6,75,0.00,,CLR,0.00,VWS V14.01,2013-08-18 15:25:00,
2013-08-18 11:30:00,71.2,62.9,30.34,South,170,2.2,2.2,75,0.00,,CLR,0.00,VWS V14.01,2013-08-18 15:30:00,
2013-08-18 11:35:00,71.2,62.9,30.34,South,169,0.0,2.2,75,0.00,,CLR,0.00,VWS V14.01,2013-08-18 15:35:00,
2013-08-18 11:40:00,72.0,61.2,30.34,South,169,0.0,0.0,69,0.00,,CLR,0.00,VWS V14.01,2013-08-18 15:40:00,
2013-08-18 11:45:00,72.5,61.3,30.34,South,169,0.0,0.0,68,0.00,,CLR,0.00,VWS V14.01,2013-08-18 15:45:00,
2013-08-18 11:50:00,72.5,60.5,30.34,South,169,0.0,0.0,66,0.00,,CLR,0.00,VWS V14.01,2013-08-18 15:50:00,
2013-08-18 11:55:00,72.5,60.5,30.34,South,169,0.0,0.0,66,0.00,,CLR,0.00,VWS V14.01,2013-08-18 15:55:00,
2013-08-18 12:00:00,72.5,60.5,30.34,South,169,0.0,0.0,66,0.00,,CLR,0.00,VWS V14.01,2013-08-18 16:00:00,
2013-08-18 12:05:00,72.5,60.5,30.34,South,169,0.0,0.0,66,0.00,,CLR,0.00,VWS V14.01,2013-08-18 16:05:00,
2013-08-18 12:10:00,72.5,60.5,30.34,SSE,168,3.6,3.6,66,0.00,,CLR,0.00,VWS V14.01,2013-08-18 16:10:00,
2013-08-18 12:15:00,73.2,51.8,30.31,SSE,167,0.0,3.6,47,0.00,,CLR,0.00,VWS V14.01,2013-08-18 16:15:00,
2013-08-18 12:20:00,73.2,51.8,30.31,SSE,154,3.1,3.1,47,0.00,,CLR,0.00,VWS V14.01,2013-08-18 16:20:00,
2013-08-18 12:25:00,73.2,51.8,30.31,SSE,159,0.0,3.1,47,0.00,,CLR,0.00,VWS V14.01,2013-08-18 16:25:00,
2013-08-18 12:30:00,73.2,51.8,30.31,WNW,298,0.0,0.0,47,0.00,,CLR,0.00,VWS V14.01,2013-08-18 16:30:00,
2013-08-18 12:35:00,73.0,43.8,30.31,NW,325,4.0,4.0,35,0.00,,CLR,0.00,VWS V14.01,2013-08-18 16:35:00,
2013-08-18 12:40:00,73.0,43.8,30.31,SSE,162,2.7,2.7,35,0.00,,CLR,0.00,VWS V14.01,2013-08-18 16:40:00,
2013-08-18 12:45:00,73.9,44.6,30.31,South,172,0.0,2.7,35,0.00,,CLR,0.00,VWS V14.01,2013-08-18 16:45:00,
2013-08-18 12:50:00,73.9,44.6,30.31,SSE,167,0.0,0.0,35,0.00,,CLR,0.00,VWS V14.01,2013-08-18 16:50:00,
2013-08-18 12:55:00,73.9,44.6,30.31,SW,222,3.1,3.1,35,0.00,,CLR,0.00,VWS V14.01,2013-08-18 16:55:00,
2013-08-18 13:00:00,73.6,42.7,30.31,NW,317,0.0,0.0,33,0.00,,CLR,0.00,VWS V14.01,2013-08-18 17:00:00,
2013-08-18 13:05:00,73.6,42.7,30.31,SSE,150,2.7,2.7,33,0.00,,CLR,0.00,VWS V14.01,2013-08-18 17:05:00,
2013-08-18 13:10:00,73.6,42.7,30.31,SSE,164,3.6,3.6,33,0.00,,CLR,0.00,VWS V14.01,2013-08-18 17:10:00,
2013-08-18 13:15:00,73.6,42.7,30.31,South,173,0.0,3.6,33,0.00,,CLR,0.00,VWS V14.01,2013-08-18 17:15:00,
2013-08-18 13:20:00,73.8,42.9,30.31,South,171,0.0,0.0,33,0.00,,CLR,0.00,VWS V14.01,2013-08-18 17:20:00,
2013-08-18 13:25:00,73.8,42.9,30.31,SSW,202,3.1,4.9,33,0.00,,CLR,0.00,VWS V14.01,2013-08-18 17:25:00,
2013-08-18 13:30:00,73.8,42.9,30.31,South,171,0.0,0.0,33,0.00,,CLR,0.00,VWS V14.01,2013-08-18 17:30:00,
2013-08-18 13:35:00,73.8,42.9,30.31,South,175,0.0,0.0,33,0.00,,CLR,0.00,VWS V14.01,2013-08-18 17:35:00,
2013-08-18 13:41:00,73.8,42.9,30.31,SSW,205,0.0,0.0,33,0.00,,CLR,0.00,VWS V14.01,2013-08-18 17:41:00,
2013-08-18 13:46:00,73.9,43.0,30.28,SSE,156,3.6,3.6,33,0.00,,CLR,0.00,VWS V14.01,2013-08-18 17:46:00,
2013-08-18 13:51:00,74.1,43.2,30.28,SSW,199,0.0,3.1,33,0.00,,CLR,0.00,VWS V14.01,2013-08-18 17:51:00,
2013-08-18 13:56:00,74.1,43.2,30.28,SW,231,0.0,3.6,33,0.00,,CLR,0.00,VWS V14.01,2013-08-18 17:56:00,
2013-08-18 14:01:00,74.1,43.2,30.28,SSW,201,0.0,0.0,33,0.00,,CLR,0.00,VWS V14.01,2013-08-18 18:01:00,
2013-08-18 14:06:00,74.3,43.4,30.28,SSW,201,3.1,3.1,33,0.00,,CLR,0.00,VWS V14.01,2013-08-18 18:06:00,
2013-08-18 14:11:00,74.5,43.5,30.28,South,176,3.6,3.6,33,0.00,,CLR,0.00,VWS V14.01,2013-08-18 18:11:00,
2013-08-18 14:16:00,74.5,43.5,30.28,South,180,4.0,4.0,33,0.00,,CLR,0.00,VWS V14.01,2013-08-18 18:16:00,
2013-08-18 14:21:00,74.5,43.5,30.28,SSE,157,5.8,5.8,33,0.00,,CLR,0.00,VWS V14.01,2013-08-18 18:21:00,
2013-08-18 14:26:00,74.5,43.5,30.28,SSE,161,4.5,5.8,33,0.00,,CLR,0.00,VWS V14.01,2013-08-18 18:26:00,
2013-08-18 14:31:00,74.5,43.5,30.28,South,170,0.0,0.0,33,0.00,,CLR,0.00,VWS V14.01,2013-08-18 18:31:00,
2013-08-18 14:36:00,74.7,42.9,30.28,SW,217,0.0,4.0,32,0.00,,CLR,0.00,VWS V14.01,2013-08-18 18:36:00,
2013-08-18 14:41:00,73.9,42.2,30.28,South,173,5.4,5.4,32,0.00,,CLR,0.00,VWS V14.01,2013-08-18 18:41:00,
2013-08-18 14:46:00,73.8,42.1,30.28,SE,142,4.0,6.3,32,0.00,,CLR,0.00,VWS V14.01,2013-08-18 18:46:00,
2013-08-18 14:51:00,73.8,42.1,30.28,SSE,164,0.0,0.0,32,0.00,,CLR,0.00,VWS V14.01,2013-08-18 18:51:00,
2013-08-18 14:56:00,74.3,42.6,30.28,South,176,3.1,4.0,32,0.00,,CLR,0.00,VWS V14.01,2013-08-18 18:56:00,
2013-08-18 15:01:00,74.3,42.6,30.28,SE,140,2.7,2.7,32,0.00,,CLR,0.00,VWS V14.01,2013-08-18 19:01:00,
2013-08-18 15:06:00,74.3,42.6,30.28,SSE,162,0.0,3.6,32,0.00,,CLR,0.00,VWS V14.01,2013-08-18 19:06:00,
2013-08-18 15:11:00,74.8,43.0,30.28,South,171,0.0,0.0,32,0.00,,CLR,0.00,VWS V14.01,2013-08-18 19:11:00,
2013-08-18 15:16:00,74.7,42.9,30.28,North,350,0.0,0.0,32,0.00,,CLR,0.00,VWS V14.01,2013-08-18 19:16:00,
2013-08-18 15:21:00,74.5,43.5,30.28,South,171,0.0,0.0,33,0.00,,CLR,0.00,VWS V14.01,2013-08-18 19:21:00,
2013-08-18 15:26:00,74.5,43.5,30.25,South,173,0.0,0.0,33,0.00,,CLR,0.00,VWS V14.01,2013-08-18 19:26:00,
2013-08-18 15:31:00,74.5,43.5,30.25,South,172,0.0,0.0,33,0.00,,CLR,0.00,VWS V14.01,2013-08-18 19:31:00,
2013-08-18 15:36:00,73.9,43.0,30.25,SSE,165,0.0,0.0,33,0.00,,CLR,0.00,VWS V14.01,2013-08-18 19:36:00,
2013-08-18 15:41:00,73.9,43.0,30.25,SSE,159,0.0,0.0,33,0.00,,CLR,0.00,VWS V14.01,2013-08-18 19:41:00,
2013-08-18 15:46:00,74.1,43.2,30.25,SSE,166,2.7,2.7,33,0.00,,CLR,0.00,VWS V14.01,2013-08-18 19:46:00,
2013-08-18 15:51:00,74.1,43.2,30.25,SSE,166,0.0,0.0,33,0.00,,CLR,0.00,VWS V14.01,2013-08-18 19:51:00,
2013-08-18 15:56:00,74.1,43.2,30.25,SSE,166,0.0,0.0,33,0.00,,CLR,0.00,VWS V14.01,2013-08-18 19:56:00,
2013-08-18 16:01:00,73.9,43.0,30.25,South,181,0.0,0.0,33,0.00,,CLR,0.00,VWS V14.01,2013-08-18 20:01:00,
2013-08-18 16:06:00,73.4,42.6,30.25,SSW,195,0.0,0.0,33,0.00,,CLR,0.00,VWS V14.01,2013-08-18 20:06:00,
2013-08-18 16:11:00,73.4,42.6,30.25,SSE,157,0.0,0.0,33,0.00,,CLR,0.00,VWS V14.01,2013-08-18 20:11:00,
2013-08-18 16:16:00,73.4,42.6,30.25,SSE,168,2.7,4.9,33,0.00,,CLR,0.00,VWS V14.01,2013-08-18 20:16:00,
2013-08-18 16:21:00,73.4,42.6,30.25,SSE,160,0.0,2.2,33,0.00,,CLR,0.00,VWS V14.01,2013-08-18 20:21:00,
2013-08-18 16:27:00,73.4,42.6,30.25,SE,125,2.2,2.7,33,0.00,,CLR,0.00,VWS V14.01,2013-08-18 20:27:00,
2013-08-18 16:32:00,72.9,42.1,30.25,NW,310,0.0,0.0,33,0.00,,CLR,0.00,VWS V14.01,2013-08-18 20:32:00,
2013-08-18 16:37:00,72.9,42.1,30.25,SSE,167,0.0,0.0,33,0.00,,CLR,0.00,VWS V14.01,2013-08-18 20:37:00,
2013-08-18 16:42:00,72.9,42.1,30.22,SSE,168,0.0,0.0,33,0.00,,CLR,0.00,VWS V14.01,2013-08-18 20:42:00,
2013-08-18 16:47:00,72.9,42.1,30.22,SSW,200,0.0,0.0,33,0.00,,CLR,0.00,VWS V14.01,2013-08-18 20:47:00,
2013-08-18 16:52:00,72.9,42.1,30.22,SSE,163,0.0,0.0,33,0.00,,CLR,0.00,VWS V14.01,2013-08-18 20:52:00,
2013-08-18 16:57:00,72.9,42.9,30.22,NNE,32,0.0,0.0,34,0.00,,CLR,0.00,VWS V14.01,2013-08-18 20:57:00,
2013-08-18 17:02:00,72.7,43.5,30.22,WNW,293,0.0,0.0,35,0.00,,CLR,0.00,VWS V14.01,2013-08-18 21:02:00,
2013-08-18 17:07:00,72.7,43.5,30.22,SW,230,0.0,2.7,35,0.00,,CLR,0.00,VWS V14.01,2013-08-18 21:07:00,
2013-08-18 17:12:00,72.0,42.8,30.22,WSW,248,0.0,0.0,35,0.00,,CLR,0.00,VWS V14.01,2013-08-18 21:12:00,
2013-08-18 17:17:00,72.0,42.8,30.22,WSW,253,0.0,3.6,35,0.00,,CLR,0.00,VWS V14.01,2013-08-18 21:17:00,
2013-08-18 17:22:00,72.0,42.8,30.22,WSW,253,0.0,0.0,35,0.00,,CLR,0.00,VWS V14.01,2013-08-18 21:22:00,
2013-08-18 17:27:00,72.0,42.8,30.22,SSW,206,0.0,0.0,35,0.00,,CLR,0.00,VWS V14.01,2013-08-18 21:27:00,
2013-08-18 17:32:00,71.8,42.7,30.22,SSE,154,0.0,0.0,35,0.00,,CLR,0.00,VWS V14.01,2013-08-18 21:32:00,
2013-08-18 17:37:00,71.8,42.7,30.22,SSW,210,2.7,5.4,35,0.00,,CLR,0.00,VWS V14.01,2013-08-18 21:37:00,
2013-08-18 17:42:00,72.0,42.8,30.22,SSW,210,0.0,0.0,35,0.00,,CLR,0.00,VWS V14.01,2013-08-18 21:42:00,
2013-08-18 17:47:00,71.8,42.7,30.22,South,184,0.0,0.0,35,0.00,,CLR,0.00,VWS V14.01,2013-08-18 21:47:00,
2013-08-18 17:52:00,71.8,42.7,30.22,South,186,0.0,0.0,35,0.00,,CLR,0.00,VWS V14.01,2013-08-18 21:52:00,
2013-08-18 17:57:00,71.8,42.7,30.22,SSE,151,0.0,2.2,35,0.00,,CLR,0.00,VWS V14.01,2013-08-18 21:57:00,
2013-08-18 18:02:00,71.6,43.3,30.22,SSE,164,0.0,0.0,36,0.00,,CLR,0.00,VWS V14.01,2013-08-18 22:02:00,
2013-08-18 18:07:00,71.4,43.1,30.22,South,177,0.0,0.0,36,0.00,,CLR,0.00,VWS V14.01,2013-08-18 22:07:00,
2013-08-18 18:12:00,71.2,43.7,30.22,South,177,0.0,0.0,37,0.00,,CLR,0.00,VWS V14.01,2013-08-18 22:12:00,
2013-08-18 18:17:00,71.2,43.7,30.22,SE,146,0.0,0.0,37,0.00,,CLR,0.00,VWS V14.01,2013-08-18 22:17:00,
2013-08-18 18:22:00,70.9,44.7,30.22,SE,146,0.0,0.0,39,0.00,,CLR,0.00,VWS V14.01,2013-08-18 22:22:00,
2013-08-18 18:27:00,70.7,45.2,30.22,SSE,156,0.0,0.0,40,0.00,,CLR,0.00,VWS V14.01,2013-08-18 22:27:00,
2013-08-18 18:32:00,70.5,44.4,30.22,SSW,200,0.0,0.0,39,0.00,,CLR,0.00,VWS V14.01,2013-08-18 22:32:00,
2013-08-18 18:37:00,70.3,44.2,30.22,SSW,205,0.0,0.0,39,0.00,,CLR,0.00,VWS V14.01,2013-08-18 22:37:00,
2013-08-18 18:42:00,70.3,44.2,30.22,SSW,206,0.0,0.0,39,0.00,,CLR,0.00,VWS V14.01,2013-08-18 22:42:00,
2013-08-18 18:48:00,69.8,44.4,30.22,SW,226,0.0,0.0,40,0.00,,CLR,0.00,VWS V14.01,2013-08-18 22:48:00,
2013-08-18 18:53:00,69.4,44.1,30.22,SW,226,0.0,0.0,40,0.00,,CLR,0.00,VWS V14.01,2013-08-18 22:53:00,
2013-08-18 18:58:00,69.4,44.1,30.22,SSW,212,0.0,0.0,40,0.00,,CLR,0.00,VWS V14.01,2013-08-18 22:58:00,
2013-08-18 19:03:00,68.7,44.7,30.22,SSW,212,0.0,0.0,42,0.00,,CLR,0.00,VWS V14.01,2013-08-18 23:03:00,
2013-08-18 19:08:00,67.8,45.1,30.22,SSW,212,0.0,0.0,44,0.00,,CLR,0.00,VWS V14.01,2013-08-18 23:08:00,
2013-08-18 19:13:00,67.8,45.1,30.22,SSW,212,0.0,0.0,44,0.00,,CLR,0.00,VWS V14.01,2013-08-18 23:13:00,
2013-08-18 19:18:00,66.6,44.6,30.22,SSW,212,0.0,0.0,45,0.00,,CLR,0.00,VWS V14.01,2013-08-18 23:18:00,
2013-08-18 19:23:00,65.5,45.3,30.22,SSW,212,0.0,0.0,48,0.00,,CLR,0.00,VWS V14.01,2013-08-18 23:23:00,
2013-08-18 19:28:00,65.5,45.3,30.22,SSW,212,0.0,0.0,48,0.00,,CLR,0.00,VWS V14.01,2013-08-18 23:28:00,
2013-08-18 19:33:00,64.8,45.7,30.22,SSW,212,0.0,0.0,50,0.00,,CLR,0.00,VWS V14.01,2013-08-18 23:33:00,
2013-08-18 19:38:00,63.9,46.4,30.22,SSW,212,0.0,0.0,53,0.00,,CLR,0.00,VWS V14.01,2013-08-18 23:38:00,
2013-08-18 19:43:00,63.9,46.4,30.22,SSW,212,0.0,0.0,53,0.00,,CLR,0.00,VWS V14.01,2013-08-18 23:43:00,
2013-08-18 19:48:00,63.9,46.4,30.22,SSW,212,0.0,0.0,53,0.00,,CLR,0.00,VWS V14.01,2013-08-18 23:48:00,
2013-08-18 19:53:00,63.9,46.4,30.22,SSW,212,0.0,0.0,53,0.00,,CLR,0.00,VWS V14.01,2013-08-18 23:53:00,
2013-08-18 19:58:00,62.2,47.3,30.19,SSW,212,0.0,0.0,58,0.00,,CLR,0.00,VWS V14.01,2013-08-18 23:58:00,
2013-08-18 20:03:00,62.1,47.6,30.19,SSW,212,0.0,0.0,59,0.00,,CLR,0.00,VWS V14.01,2013-08-19 00:03:00,
2013-08-18 20:08:00,61.7,47.7,30.19,SSW,212,0.0,0.0,60,0.00,,CLR,0.00,VWS V14.01,2013-08-19 00:08:00,
2013-08-18 20:13:00,61.7,47.7,30.19,SSW,212,0.0,0.0,60,0.00,,CLR,0.00,VWS V14.01,2013-08-19 00:13:00,
2013-08-18 20:18:00,61.0,47.0,30.19,SSW,212,0.0,0.0,60,0.00,,CLR,0.00,VWS V14.01,2013-08-19 00:18:00,
2013-08-18 20:23:00,60.3,47.6,30.19,SSW,212,0.0,0.0,63,0.00,,CLR,0.00,VWS V14.01,2013-08-19 00:23:00,
2013-08-18 20:28:00,60.1,47.5,30.19,SSW,212,0.0,0.0,63,0.00,,CLR,0.00,VWS V14.01,2013-08-19 00:28:00,
2013-08-18 20:33:00,60.1,47.5,30.19,SSW,212,0.0,0.0,63,0.00,,CLR,0.00,VWS V14.01,2013-08-19 00:33:00,
2013-08-18 20:38:00,59.5,47.8,30.19,SSW,212,0.0,0.0,65,0.00,,CLR,0.00,VWS V14.01,2013-08-19 00:38:00,
2013-08-18 20:43:00,59.5,47.8,30.19,SSW,212,0.0,0.0,65,0.00,,CLR,0.00,VWS V14.01,2013-08-19 00:43:00,
2013-08-18 20:48:00,58.8,48.3,30.19,SSW,212,0.0,0.0,68,0.00,,CLR,0.00,VWS V14.01,2013-08-19 00:48:00,
2013-08-18 20:53:00,58.5,48.3,30.19,SSW,212,0.0,0.0,69,0.00,,CLR,0.00,VWS V14.01,2013-08-19 00:53:00,
2013-08-18 20:58:00,58.5,48.3,30.19,SSW,212,0.0,0.0,69,0.00,,CLR,0.00,VWS V14.01,2013-08-19 00:58:00,
2013-08-18 21:03:00,58.5,48.3,30.19,SSW,212,0.0,0.0,69,0.00,,CLR,0.00,VWS V14.01,2013-08-19 01:03:00,
2013-08-18 21:08:00,58.5,48.3,30.19,SSW,212,0.0,0.0,69,0.00,,CLR,0.00,VWS V14.01,2013-08-19 01:08:00,
2013-08-18 21:13:00,58.5,48.3,30.19,SSW,212,0.0,0.0,69,0.00,,CLR,0.00,VWS V14.01,2013-08-19 01:13:00,
2013-08-18 21:18:00,58.5,48.3,30.19,WSW,258,0.0,0.0,69,0.00,,CLR,0.00,VWS V14.01,2013-08-19 01:18:00,
2013-08-18 21:23:00,57.0,48.1,30.19,WSW,258,0.0,0.0,72,0.00,,CLR,0.00,VWS V14.01,2013-08-19 01:23:00,
2013-08-18 21:28:00,57.0,48.1,30.19,WSW,258,0.0,0.0,72,0.00,,CLR,0.00,VWS V14.01,2013-08-19 01:28:00,
2013-08-18 21:33:00,56.7,48.1,30.19,WSW,258,0.0,0.0,73,0.00,,CLR,0.00,VWS V14.01,2013-08-19 01:33:00,
2013-08-18 21:38:00,56.7,48.1,30.19,WSW,258,0.0,0.0,73,0.00,,CLR,0.00,VWS V14.01,2013-08-19 01:38:00,
2013-08-18 21:43:00,56.7,48.1,30.19,WSW,258,0.0,0.0,73,0.00,,CLR,0.00,VWS V14.01,2013-08-19 01:43:00,
2013-08-18 21:48:00,56.1,48.0,30.19,WSW,258,0.0,0.0,74,0.00,,CLR,0.00,VWS V14.01,2013-08-19 01:48:00,
2013-08-18 21:53:00,56.1,48.0,30.19,WSW,258,0.0,0.0,74,0.00,,CLR,0.00,VWS V14.01,2013-08-19 01:53:00,
2013-08-18 21:59:00,55.8,48.0,30.19,WSW,258,0.0,0.0,75,0.00,,CLR,0.00,VWS V14.01,2013-08-19 01:59:00,
2013-08-18 22:04:00,55.6,47.8,30.19,WSW,258,0.0,0.0,75,0.00,,CLR,0.00,VWS V14.01,2013-08-19 02:04:00,
2013-08-18 22:09:00,55.4,48.0,30.19,WSW,258,0.0,0.0,76,0.00,,CLR,0.00,VWS V14.01,2013-08-19 02:09:00,
2013-08-18 22:14:00,55.4,48.0,30.19,WSW,258,0.0,0.0,76,0.00,,CLR,0.00,VWS V14.01,2013-08-19 02:14:00,
2013-08-18 22:19:00,55.4,48.0,30.19,WSW,258,0.0,0.0,76,0.00,,CLR,0.00,VWS V14.01,2013-08-19 02:19:00,
2013-08-18 22:24:00,54.9,47.8,30.19,WSW,258,0.0,0.0,77,0.00,,CLR,0.00,VWS V14.01,2013-08-19 02:24:00,
2013-08-18 22:29:00,54.9,47.8,30.19,WSW,258,0.0,0.0,77,0.00,,CLR,0.00,VWS V14.01,2013-08-19 02:29:00,
2013-08-18 22:34:00,54.5,47.8,30.19,WSW,258,0.0,0.0,78,0.00,,CLR,0.00,VWS V14.01,2013-08-19 02:34:00,
2013-08-18 22:39:00,54.5,47.8,30.19,WSW,258,0.0,0.0,78,0.00,,CLR,0.00,VWS V14.01,2013-08-19 02:39:00,
2013-08-18 22:44:00,54.1,47.8,30.19,WSW,258,0.0,0.0,79,0.00,,CLR,0.00,VWS V14.01,2013-08-19 02:44:00,
2013-08-18 22:49:00,54.1,47.8,30.19,WSW,258,0.0,0.0,79,0.00,,CLR,0.00,VWS V14.01,2013-08-19 02:49:00,
2013-08-18 22:54:00,54.1,47.8,30.19,WSW,258,0.0,0.0,79,0.00,,CLR,0.00,VWS V14.01,2013-08-19 02:54:00,
2013-08-18 22:59:00,53.8,47.8,30.19,WNW,283,0.0,0.0,80,0.00,,CLR,0.00,VWS V14.01,2013-08-19 02:59:00,
2013-08-18 23:04:00,53.8,47.8,30.19,North,7,0.0,0.0,80,0.00,,CLR,0.00,VWS V14.01,2013-08-19 03:04:00,
2013-08-18 23:09:00,53.4,47.7,30.19,North,7,0.0,0.0,81,0.00,,CLR,0.00,VWS V14.01,2013-08-19 03:09:00,
2013-08-18 23:14:00,53.4,47.7,30.19,North,7,0.0,0.0,81,0.00,,CLR,0.00,VWS V14.01,2013-08-19 03:14:00,
2013-08-18 23:19:00,53.1,47.4,30.19,North,7,0.0,0.0,81,0.00,,CLR,0.00,VWS V14.01,2013-08-19 03:19:00,
2013-08-18 23:24:00,53.1,47.4,30.19,North,7,0.0,0.0,81,0.00,,CLR,0.00,VWS V14.01,2013-08-19 03:24:00,
2013-08-18 23:29:00,52.9,47.5,30.19,North,7,0.0,0.0,82,0.00,,CLR,0.00,VWS V14.01,2013-08-19 03:29:00,
2013-08-18 23:34:00,52.7,47.4,30.19,North,7,0.0,0.0,82,0.00,,CLR,0.00,VWS V14.01,2013-08-19 03:34:00,
2013-08-18 23:39:00,52.7,47.4,30.19,North,7,0.0,0.0,82,0.00,,CLR,0.00,VWS V14.01,2013-08-19 03:39:00,
2013-08-18 23:44:00,52.7,47.4,30.19,North,7,0.0,0.0,82,0.00,,CLR,0.00,VWS V14.01,2013-08-19 03:44:00,
2013-08-18 23:49:00,52.7,47.4,30.19,North,7,0.0,0.0,82,0.00,,CLR,0.00,VWS V14.01,2013-08-19 03:49:00,
2013-08-18 23:54:00,52.7,47.4,30.19,North,7,0.0,0.0,82,0.00,,CLR,0.00,VWS V14.01,2013-08-19 03:54:00,
2013-08-18 23:59:00,52.2,46.8,30.19,North,7,0.0,0.0,82,0.00,,CLR,0.00,VWS V14.01,2013-08-19 03:59:00,